[2025-02-01 00:00:00, 2025-02-01 23:59:59] previous next
| time | temperature | air pressure | humidity | solar radiation | wind speed |
|---|---|---|---|---|---|
| 2025-02-01 08:09:14 | -1.8 | 1023.5 | 99.0 | 11.3 | 0.0 |
| 2025-02-01 08:29:13 | -0.3 | 1023.5 | 99.0 | 18.0 | 0.0 |
| 2025-02-01 08:49:15 | 2.5 | 1023.5 | 99.0 | 21.0 | 0.0 |
| 2025-02-01 09:09:14 | 1.3 | 1023.5 | 99.0 | 23.1 | 0.0 |
| 2025-02-01 09:29:14 | 1.6 | 1023.5 | 99.0 | 25.5 | 0.0 |
| 2025-02-01 09:49:13 | 1.9 | 1023.5 | 99.0 | 30.3 | 0.0 |
| 2025-02-01 10:09:14 | 1.3 | 1023.2 | 99.0 | 29.6 | 2.0 |
| 2025-02-01 10:29:14 | 2.2 | 1023.2 | 99.0 | 30.6 | 0.7 |
| 2025-02-01 10:49:14 | 2.5 | 1023.2 | 95.0 | 48.2 | 0.1 |
| 2025-02-01 11:09:13 | 3.7 | 1022.8 | 89.0 | 37.5 | 1.3 |
| 2025-02-01 11:29:14 | 4.4 | 1022.5 | 83.0 | 115.9 | 1.0 |
| 2025-02-01 11:49:13 | 4.8 | 1022.5 | 79.0 | 168.8 | 1.3 |
| 2025-02-01 12:09:14 | 5.2 | 1022.5 | 79.0 | 214.6 | 0.0 |
| 2025-02-01 12:29:13 | 5.5 | 1022.2 | 74.0 | 237.7 | 2.2 |
| 2025-02-01 12:49:14 | 6.2 | 1021.8 | 73.0 | 244.7 | 0.3 |
| 2025-02-01 13:09:14 | 6.1 | 1021.5 | 73.0 | 247.5 | 0.7 |
| 2025-02-01 13:29:13 | 6.3 | 1021.5 | 71.0 | 238.4 | 1.4 |
| 2025-02-01 13:49:14 | 6.4 | 1021.5 | 67.0 | 231.6 | 1.4 |
| 2025-02-01 14:09:13 | 6.6 | 1021.2 | 65.0 | 221.2 | 1.4 |
| 2025-02-01 14:29:14 | 6.6 | 1021.2 | 65.0 | 206.4 | 1.3 |
| 2025-02-01 14:49:13 | 6.7 | 1021.2 | 64.0 | 187.3 | 2.0 |
| 2025-02-01 15:09:14 | 6.2 | 1020.8 | 65.0 | 28.5 | 1.4 |
CSV export: /station/IWELLEN5/data?period=20250201T000000/20250201T235959&format=csv&tz=GMT